Location: Alfortville
(48.8058°N, 2.4204°E)
Time: 01:04:22
(UTC+00:00)

FENGYUN 1C DEB - Visible Passes

Search period start: 07 December 2023 00:00
Search period end: 17 December 2023 00:00
Orbit: 786 x 862 km, 99.1° (Epoch: 03 December)

Date Brightness Start Highest point End Pass type
(mag) Time Alt. Az. Time Alt. Az. Time Alt. Az.
07 Dec ? 16:38:05 10° N 16:43:14 47° WNW 16:48:27 10° SW visible
08 Dec ? 18:00:26 10° NNW 18:02:54 13° NW 18:05:23 10° WNW visible
09 Dec ? 17:40:03 10° NNW 17:43:36 18° NW 17:47:12 10° W visible
10 Dec ? 17:19:58 10° N 17:24:16 24° WNW 17:28:36 10° WSW visible
11 Dec ? 17:00:02 10° N 17:04:51 33° WNW 17:09:43 10° SW visible
12 Dec ? 16:40:13 10° N 16:45:23 46° WNW 16:50:37 10° SW visible
13 Dec ? 18:02:34 10° NNW 18:05:01 13° NW 18:07:28 10° WNW visible
14 Dec ? 17:42:09 10° NNW 17:45:42 18° NW 17:49:17 10° W visible
15 Dec ? 17:22:03 10° N 17:26:21 24° WNW 17:30:40 10° WSW visible
16 Dec ? 17:02:05 10° N 17:06:55 33° WNW 17:11:47 10° SW visible
